Lid_Strength_Index
12 12 12 12 11 12 13 14 14 13 15 13 15 16 16 17 17 17 17 19 19 19
14 14 14 14 13 13 14 14 15 16 17 16 17 18 17 18 19 18 19 20 20 20
15 15 15 15 16 15 16 16 17 17 19 18 18 19 19 20 20 21 21 20 21 21
16 16 16 16 17 17 17 17 18 19 20 19 20 20 20 20 20 21 21 21 22 22
16 16 17 18 18 17 18 19 19 20 20 21 20 20 21 21 22 21 22 22 23 23
16 17 17 19 19 19 20 20 21 21 21 21 21 21 21 22 22 22 22 23 24 24
17 17 17 18 19 19 20 21 21 21 22 21 21 21 22 22 23 22 22 22 22 22
18 17 18 19 19 19 19 20 20 20 21 21 22 22 23 23 23 23 23 22 21 20
18 19 19 19 19 19 20 20 20 20 20 21 20 19 20 23 23 23 22 21 20 20
20 20 20 20 20 20 20 20 20 21 21 21 20 19 20 21 22 22 21 21 20 20
20 21 21 21 21 21 21 21 20 20 20 20 18 17 18 20 22 22 22 22 21 21
21 21 22 22 22 22 22 22 20 19 19 19 18 17 18 20 21 22 23 23 22 21
21 21 21 22 22 21 20 20 19 19 20 19 18 16 18 20 21 22 22 23 23 21
20 21 21 21 21 21 21 21 22 22 21 21 20 18 16 18 20 21 22 23 24 23